Regional Weather Roundup
Issued by NWS

Home | Current Version | Previous Version | Text Only | Print | Product List | Glossary On
Versions: 1 2 3 4 5 6 7 8 9 10 11 12 13 14 15 16 17 18 19 20 21 22 23 24 25 26 27 28 29 30 31 32 33 34 35 36 37 38 39 40 41 42 43 44 45 46 47 48 49 50
000
ASUS44 KOUN 061910
RWROK

WEATHER ROUNDUP FOR OKLAHOMA
NATIONAL WEATHER SERVICE NORMAN OK
200 PM CDT WED MAY 06 2015

NOTE: "FAIR" INDICATES FEW OR NO CLOUDS BELOW 12,000 FEET WITH NO
      SIGNIFICANT WEATHER AND/OR OBSTRUCTIONS TO VISIBILITY.

OKZ001>007-009>012-014-015-017-062000-
NORTHWEST OKLAHOMA AND THE PANHANDLE

CITY           SKY/WX    TMP DP  RH WIND       PRES   REMARKS
GAGE           MOSUNNY   79  60  52 S23G38    29.74F
GUYMON         MOSUNNY   76  53  44 SW24G33   29.69F
ENID/WOODRING  PTSUNNY   75  68  78 S25       29.82S
$$

OKZ016-021>023-033>039-044-045-062000-
SOUTHWEST OKLAHOMA

CITY           SKY/WX    TMP DP  RH WIND       PRES   REMARKS
LAWTON/REGL    LGT RAIN  78  69  73 S20       29.82F
LAWTON/FT SILL LGT RAIN  76  70  81 S16G28    29.82F
FREDERICK      MOSUNNY   82  68  62 S21G31    29.80F
CLINTON        SUNNY     78  66  66 S23G33    29.81F
HOBART         PTSUNNY   79  70  74 S16G30    29.81F
ALTUS AFB      MOSUNNY   82  69  65 S24       29.80F
$$

OKZ018>020-024>031-062000-
CENTRAL OKLAHOMA

CITY           SKY/WX    TMP DP  RH WIND       PRES   REMARKS
OKLAHOMA CITY  CLOUDY    73  65  75 S21G29    29.87F
OKC/WILEY POST PTSUNNY   76  67  73 SE22      29.85F
OKC/TINKER AFB PTSUNNY   72  66  82 S16G24    29.88F
STILLWATER     LGT RAIN  73  66  78 S16G23    29.86F
GUTHRIE        CLOUDY    74  66  76 S15G28    29.85F
$$

OKZ008-013-054>072-062000-
NORTHEAST OKLAHOMA

CITY           SKY/WX    TMP DP  RH WIND       PRES   REMARKS
TULSA          CLOUDY    74  65  73 S21G28    29.91F
TULSA/JONES    CLOUDY    72  65  78 S13G23    29.92F
PONCA CITY     CLOUDY    73  67  81 SE20G26   29.84F
BARTLESVILLE   CLOUDY    69  66  90 S10       29.92F
MUSKOGEE       PTSUNNY   78  62  57 S17G25    29.95F
$$

OKZ032-040>043-046>053-073>077-062000-
SOUTH CENTRAL/SOUTHEAST OKLAHOMA

CITY           SKY/WX    TMP DP  RH WIND       PRES   REMARKS
ARDMORE/DWNTWN CLOUDY    73  68  83 S9        29.91F
MCALESTER      CLOUDY    76  65  68 S9        29.96S
$$



USA.gov is the U.S. government's official web portal to all federal, state and local government web resources and services.